Mobridge, SD

10:48 PM CST on November 19, 2017 (GMT -0600)
Mobridge Municipal

Weather History for KMBG - November, 2012

Change the Weather History Date:

Monday, November 12, 2012

  Actual Average Record
Temperature  
Mean Temperature 19 °F 34 °F  
Max Temperature 28 °F 45 °F 68 °F (2016)
Min Temperature 10 °F 23 °F -10 °F (1940)
Degree Days  
Heating Degree Days 46 31  
Month to date heating degree days 390 334  
Since 1 July heating degree days 1147 1108  
Cooling Degree Days 0 0  
Month to date cooling degree days 0 0  
Year to date cooling degree days 866 644  
Moisture  
Dew Point 11 °F    
Average Humidity 73    
Maximum Humidity 91    
Minimum Humidity 55    
Precipitation  
Precipitation T in 0.02 in 0.35 in (1938)
Month to date precipitation 0.33 0.34  
Year to date precipitation 13.14 17.29  
Snow  
Snow T in - - ()
Month to date snowfall 0.5  
Since 1 July snowfall 0.5  
Snow Depth 0.00 in    
Sea Level Pressure  
Sea Level Pressure 30.17 in    
Wind  
Wind Speed 11 mph (WNW)    
Max Wind Speed 28 mph    
Max Gust Speed 36 mph    
Visibility 9 miles    
Events Snow    
T = Trace of Precipitation, MM = Missing Value Source: NWS Daily Summary

Daily Weather History Graph

Daily Weather History Graph

Search for Another Location

Airport or City:

Trip Planner

Search our weather history database for the weather conditions in past years. The results will help you decide how hot, cold, wet, or windy it might be!

Date:

Astronomy

Nov. 12, 2012 Rise Set
Actual Time 7:37 AM CST 5:13 PM CST
Civil Twilight 7:05 AM CST 5:45 PM CST
Nautical Twilight 6:29 AM CST 6:21 PM CST
Astronomical Twilight 5:54 AM CST 6:56 PM CST
Moon 6:02 AM CST (11/12) 4:21 PM CST (11/12)
Length of Visible Light 10h 40m
Length of Day
9h 36m
Waning Crescent, 2% of the Moon is Illuminated
Nov 12
Waning Crescent
Nov 13
New
Nov 20
First Quarter
Nov 28
Full
Dec 6
Last Quarter

Hourly Weather History & Observations

Time (CST) Temp. Windchill Dew Point Humidity Pressure Visibility Wind Dir Wind Speed Gust Speed Precip Events Conditions
12:20 AM 17.6 °F 0.9 °F 12.2 °F 79% 29.98 in 3.0 mi WNW 20.7 mph 27.6 mph 0.00 in Snow Light Snow
12:34 AM 17.6 °F 0.5 °F 12.2 °F 79% 29.98 in 4.0 mi WNW 21.9 mph 31.1 mph 0.00 in Snow Light Snow
12:52 AM 17.1 °F -1.0 °F 12.0 °F 81% 30.08 in 3.0 mi WNW 24.2 mph 33.4 mph 0.00 in Snow Light Snow
1:38 AM 17.6 °F 0.1 °F 10.4 °F 73% 29.99 in 10.0 mi WNW 23.0 mph 31.1 mph 0.00 in   Mostly Cloudy
1:52 AM 16.0 °F -2.5 °F 9.0 °F 74% 30.08 in 10.0 mi WNW 24.2 mph 34.5 mph 0.00 in   Scattered Clouds
2:52 AM 14.0 °F -5.8 °F 7.0 °F 74% 30.10 in 10.0 mi NW 26.5 mph 35.7 mph N/A   Clear
3:52 AM 12.9 °F -3.4 °F 6.1 °F 74% 30.11 in 10.0 mi WNW 16.1 mph - N/A   Clear
4:52 AM 12.9 °F -3.4 °F 5.0 °F 71% 30.13 in 10.0 mi WNW 16.1 mph 29.9 mph N/A   Clear
5:52 AM 10.9 °F -5.9 °F 5.0 °F 77% 30.16 in 10.0 mi WNW 16.1 mph 25.3 mph N/A   Clear
6:52 AM 12.0 °F -2.0 °F 5.0 °F 73% 30.18 in 10.0 mi WNW 11.5 mph 21.9 mph N/A   Clear
7:52 AM 10.9 °F -4.7 °F 5.0 °F 77% 30.20 in 10.0 mi WNW 13.8 mph - N/A   Clear
8:52 AM 12.9 °F -3.9 °F 5.0 °F 71% 30.22 in 10.0 mi WNW 17.3 mph - N/A   Clear
9:52 AM 17.1 °F 2.0 °F 8.1 °F 68% 30.22 in 10.0 mi NW 16.1 mph - N/A   Clear
10:52 AM 19.0 °F 5.6 °F 9.0 °F 65% 30.24 in 10.0 mi NW 13.8 mph - N/A   Clear
11:52 AM 21.0 °F 9.3 °F 9.0 °F 60% 30.24 in 10.0 mi WNW 11.5 mph - N/A   Clear
12:52 PM 23.0 °F 13.9 °F 10.0 °F 58% 30.23 in 10.0 mi WNW 8.1 mph - N/A   Clear
1:52 PM 24.1 °F 17.0 °F 10.9 °F 57% 30.22 in 10.0 mi West 5.8 mph - N/A   Clear
2:52 PM 26.1 °F 21.9 °F 12.9 °F 58% 30.23 in 10.0 mi WNW 3.5 mph - N/A   Clear
3:52 PM 27.0 °F 18.7 °F 17.1 °F 66% 30.22 in 10.0 mi West 8.1 mph - N/A   Clear
4:52 PM 27.0 °F 21.6 °F 18.0 °F 69% 30.23 in 10.0 mi WSW 4.6 mph - N/A   Clear
5:52 PM 21.9 °F 17.2 °F 17.1 °F 82% 30.24 in 10.0 mi South 3.5 mph - N/A   Clear
6:52 PM 19.9 °F 13.4 °F 16.0 °F 85% 30.23 in 10.0 mi SSE 4.6 mph - N/A   Clear
7:52 PM 21.0 °F 16.2 °F 16.0 °F 81% 30.23 in 10.0 mi SE 3.5 mph - N/A   Clear
8:52 PM 19.0 °F - 16.0 °F 88% 30.24 in 10.0 mi Calm Calm - N/A   Clear
9:52 PM 21.0 °F 16.2 °F 18.0 °F 88% 30.23 in 10.0 mi SE 3.5 mph - N/A   Clear
10:52 PM 19.9 °F 13.4 °F 17.1 °F 89% 30.23 in 10.0 mi ESE 4.6 mph - N/A   Clear
11:52 PM 19.9 °F 13.4 °F 17.1 °F 89% 30.23 in 10.0 mi ESE 4.6 mph - N/A   Clear